Tracking 20942 objects as of 10-Jul-2020
HD Live streaming from Space Station
objects crossing your sky now

RWASAT-1

Track RWASAT-1 now!
10-day predictions
RWASAT-1 is classified as:


NORAD ID: 44790
Int'l Code: 1998-067QT
Perigee: 409.0 km
Apogee: 421.4 km
Inclination: 51.6 °
Period: 92.7 minutes
Semi major axis: 6786 km
RCS: Unknown
Launch date: November 20, 1998
Source: Republic of Rwanda (RWA)
Launch site: TYURATAM MISSILE AND SPACE COMPLEX (TTMTR)

Uplink (MHz):
Downlink (MHz):
Beacon (MHz):
Mode:
Call sign:
Status: Unknown

aabbcc
Your satellite tracking list
Your tracking list is empty




NASA's NSSDC Master Catalog

Two Line Element Set (TLE):
1 44790U 98067QV  20191.50543337 -.00000480  00000-0  00000+0 0  9999
2 44790  51.6410 233.6976 0009188  99.5544  41.4336 15.52974646 36055
Source of the keplerian elements: AFSPC